,,Stat6,,Stat2,,Stat8,,Stat9,,Stat10,,Wind1,,Wind1,
time,status,PA1M_AVG,status,PR1M_SUM,status,RH1M_AVG,status,SR1M_AVG,status,TA1M_AVG,status,W1dAve1m,status,W1sAve1m,
2004-10-11, 00:00:00,VALID,920.584,VALID,0,VALID,100,VALID,0.0169808,VALID,20.074,VALID,38,VALID,0.0632102,
2004-10-11, 00:01:00,VALID,920.567,VALID,0,VALID,100,VALID,0,VALID,20.0738,VALID,38,VALID,0,
2004-10-11, 00:02:00,VALID,920.551,VALID,0,VALID,100,VALID,0,VALID,20.0708,VALID,38,VALID,0,
2004-10-11, 00:03:00,VALID,920.521,VALID,0,VALID,100,VALID,-0.0509425,VALID,20.0751,VALID,38,VALID,0,
2004-10-11, 00:04:00,VALID,920.493,VALID,0,VALID,100,VALID,-0.0339617,VALID,20.0969,VALID,38,VALID,0,
2004-10-11, 00:05:00,VALID,920.475,VALID,0,VALID,100,VALID,0.0169808,VALID,20.0966,VALID,38,VALID,0,
2004-10-11, 00:06:00,VALID,920.458,VALID,0,VALID,100,VALID,0.0169808,VALID,20.0802,VALID,38,VALID,0,
2004-10-11, 00:07:00,VALID,920.433,VALID,0,VALID,100,VALID,0.0169808,VALID,20.084,VALID,38,VALID,0,
2004-10-11, 00:08:00,VALID,920.415,VALID,0,VALID,100,VALID,0,VALID,20.0835,VALID,38,VALID,0,
2004-10-11, 00:09:00,VALID,920.406,VALID,0,VALID,100,VALID,-0.0169808,VALID,20.0934,VALID,38,VALID,0,
2004-10-11, 00:10:00,VALID,920.388,VALID,0,VALID,100,VALID,0,VALID,20.0867,VALID,38,VALID,0,
2004-10-11, 00:11:00,VALID,920.382,VALID,0,VALID,100,VALID,0,VALID,20.0966,VALID,38,VALID,0,
2004-10-11, 00:12:00,VALID,920.388,VALID,0,VALID,100,VALID,-0.0169808,VALID,20.1004,VALID,38,VALID,0,
2004-10-11, 00:13:00,VALID,920.37,VALID,0,VALID,100,VALID,0,VALID,20.084,VALID,38,VALID,0,
2004-10-11, 00:14:00,VALID,920.37,VALID,0,VALID,100,VALID,0.0169808,VALID,20.0485,VALID,38,VALID,0,
2004-10-11, 00:15:00,VALID,920.369,VALID,0,VALID,100,VALID,0.0169808,VALID,20.0129,VALID,38,VALID,0.137463,
2004-10-11, 00:16:00,VALID,920.363,VALID,0,VALID,100,VALID,0,VALID,19.9839,VALID,38,VALID,0.097561,
2004-10-11, 00:17:00,VALID,920.365,VALID,0,VALID,100,VALID,-0.0169808,VALID,19.9615,VALID,38,VALID,0.478198,
2004-10-11, 00:18:00,VALID,920.378,VALID,0,VALID,100,VALID,-0.0169808,VALID,19.9354,VALID,55,VALID,0.58647,
2004-10-11, 00:19:00,VALID,920.367,VALID,0,VALID,100,VALID,-0.0169808,VALID,19.9163,VALID,65,VALID,0.410974,
2004-10-11, 00:20:00,VALID,920.363,VALID,0,VALID,100,VALID,0,VALID,19.9034,VALID,65,VALID,0.20873,
2004-10-11, 00:21:00,VALID,920.362,VALID,0,VALID,100,VALID,-0.0169808,VALID,19.8868,VALID,65,VALID,0.102095,
2004-10-11, 00:22:00,VALID,920.37,VALID,0,VALID,100,VALID,0.0169808,VALID,19.8676,VALID,74,VALID,0.523065,
2004-10-11, 00:23:00,VALID,920.366,VALID,0,VALID,100,VALID,0,VALID,19.8674,VALID,98,VALID,0.628634,
2004-10-11, 00:24:00,VALID,920.392,VALID,0,VALID,100,VALID,0,VALID,19.8547,VALID,108,VALID,0.684593,
2004-10-11, 00:25:00,VALID,920.388,VALID,0,VALID,100,VALID,0,VALID,19.8483,VALID,113,VALID,0.792683,
2004-10-11, 00:26:00,VALID,920.395,VALID,0,VALID,100,VALID,0.0339617,VALID,19.8614,VALID,119,VALID,0.723845,
2004-10-11, 00:27:00,VALID,920.395,VALID,0,VALID,100,VALID,0,VALID,19.8448,VALID,119,VALID,0.759014,
2004-10-11, 00:28:00,VALID,920.414,VALID,0,VALID,100,VALID,0,VALID,19.8649,VALID,114,VALID,0.745833,
2004-10-11, 00:29:00,VALID,920.422,VALID,0,VALID,100,VALID,0.0169808,VALID,19.858,VALID,110,VALID,0.56343,
2004-10-11, 00:30:00,VALID,920.423,VALID,0,VALID,100,VALID,0,VALID,19.848,VALID,104,VALID,0.662609,
2004-10-11, 00:31:00,VALID,920.431,VALID,0,VALID,100,VALID,0.0169808,VALID,19.8577,VALID,75,VALID,0.426121,
2004-10-11, 00:32:00,VALID,920.437,VALID,0,VALID,100,VALID,0,VALID,19.8845,VALID,69,VALID,0.39596,
2004-10-11, 00:33:00,VALID,920.435,VALID,0,VALID,100,VALID,-0.0339617,VALID,19.8945,VALID,72,VALID,0.516158,
2004-10-11, 00:34:00,VALID,920.443,VALID,0,VALID,100,VALID,-0.0509425,VALID,19.8781,VALID,104,VALID,0.909801,
2004-10-11, 00:35:00,VALID,920.434,VALID,0,VALID,100,VALID,-0.0509425,VALID,19.885,VALID,94,VALID,0.694957,
2004-10-11, 00:36:00,VALID,920.437,VALID,0,VALID,100,VALID,-0.0509425,VALID,19.8848,VALID,90,VALID,0.515988,
2004-10-11, 00:37:00,VALID,920.424,VALID,0,VALID,100,VALID,-0.0339617,VALID,19.8942,VALID,71,VALID,0.492551,
2004-10-11, 00:38:00,VALID,920.421,VALID,0,VALID,100,VALID,-0.0849042,VALID,19.9235,VALID,73,VALID,0.526242,
2004-10-11, 00:39:00,VALID,920.406,VALID,0,VALID,100,VALID,-0.0679233,VALID,19.9399,VALID,62,VALID,0.146621,
2004-10-11, 00:40:00,VALID,920.383,VALID,0,VALID,100,VALID,-0.0849042,VALID,19.9504,VALID,119,VALID,0.707919,
2004-10-11, 00:41:00,VALID,920.36,VALID,0,VALID,100,VALID,-0.0339617,VALID,19.9432,VALID,117,VALID,1.26116,
2004-10-11, 00:42:00,VALID,920.336,VALID,0,VALID,100,VALID,-0.0849042,VALID,19.9434,VALID,121,VALID,1.58507,
2004-10-11, 00:43:00,VALID,920.304,VALID,0,VALID,100,VALID,-0.0849042,VALID,19.9332,VALID,120,VALID,1.22187,
2004-10-11, 00:44:00,VALID,920.269,VALID,0,VALID,100,VALID,-0.0339617,VALID,19.9563,VALID,117,VALID,1.30898,
2004-10-11, 00:45:00,VALID,920.248,VALID,0,VALID,100,VALID,-0.0339617,VALID,19.9561,VALID,105,VALID,0.614329,
2004-10-11, 00:46:01,VALID,920.223,VALID,0,VALID,100,VALID,-0.0679233,VALID,19.9658,VALID,51,VALID,0.00328947,
2004-10-11, 00:47:00,VALID,920.192,VALID,0,VALID,100,VALID,-0.0339617,VALID,19.9916,VALID,105,VALID,0.238372,
2004-10-11, 00:48:00,VALID,920.183,VALID,0,VALID,100,VALID,-0.0169808,VALID,19.9846,VALID,136,VALID,0.376817,
2004-10-11, 00:49:00,VALID,920.156,VALID,0,VALID,100,VALID,0.0339617,VALID,19.9839,VALID,124,VALID,0.553571,
2004-10-11, 00:50:01,VALID,920.136,VALID,0.2,VALID,100,VALID,0,VALID,19.9739,VALID,121,VALID,0.196646,
2004-10-11, 00:51:01,VALID,920.125,VALID,0,VALID,100,VALID,0.0169808,VALID,19.9513,VALID,123,VALID,0.78468,
2004-10-11, 00:52:01,VALID,920.093,VALID,0,VALID,100,VALID,0,VALID,19.9382,VALID,120,VALID,0.446911,
2004-10-11, 00:53:00,VALID,920.056,VALID,0,VALID,100,VALID,0.0339617,VALID,19.9357,VALID,132,VALID,0.863735,
2004-10-11, 00:54:00,VALID,920.027,VALID,0,VALID,100,VALID,-0.0169808,VALID,19.9295,VALID,106,VALID,0.69093,
2004-10-11, 00:55:00,VALID,920.005,VALID,0,VALID,100,VALID,0.0169808,VALID,19.9253,VALID,52,VALID,0.703311,
2004-10-11, 00:56:00,VALID,919.981,VALID,0,VALID,100,VALID,0,VALID,19.9158,VALID,75,VALID,1.30748,
2004-10-11, 00:57:00,VALID,919.971,VALID,0,VALID,100,VALID,0,VALID,19.884,VALID,99,VALID,1.63136,
2004-10-11, 00:58:01,VALID,919.966,VALID,0,VALID,100,VALID,0,VALID,19.8746,VALID,85,VALID,1.04954,
2004-10-11, 00:59:00,VALID,919.943,VALID,0,VALID,99.9863,VALID,0.0169808,VALID,19.8835,VALID,74,VALID,0.787287,
2004-10-11, 01:00:00,VALID,919.938,VALID,0,VALID,99.6887,VALID,0.0339617,VALID,19.8706,VALID,99,VALID,1.20632,
2004-10-11, 01:01:00,VALID,919.913,VALID,0,VALID,99.4255,VALID,0.0339617,VALID,19.8582,VALID,109,VALID,0.771289,
2004-10-11, 01:02:01,VALID,919.916,VALID,0,VALID,99.1559,VALID,0,VALID,19.8684,VALID,93,VALID,0.732701,
2004-10-11, 01:03:00,VALID,919.905,VALID,0,VALID,98.8151,VALID,-0.0679233,VALID,19.846,VALID,98,VALID,0.985283,
2004-10-11, 01:04:00,VALID,919.885,VALID,0,VALID,98.5519,VALID,-0.0339617,VALID,19.8431,VALID,126,VALID,0.7117,
2004-10-11, 01:05:01,VALID,919.877,VALID,0,VALID,98.6727,VALID,-0.101885,VALID,19.8657,VALID,114,VALID,0.665179,
2004-10-11, 01:06:00,VALID,919.867,VALID,0,VALID,98.7045,VALID,-0.0509425,VALID,19.889,VALID,110,VALID,0.486235,
2004-10-11, 01:07:01,VALID,919.864,VALID,0,VALID,98.6498,VALID,-0.101885,VALID,19.8823,VALID,119,VALID,0.665305,
2004-10-11, 01:08:00,VALID,919.856,VALID,0,VALID,98.5481,VALID,-0.0849042,VALID,19.8694,VALID,122,VALID,0.571766,
2004-10-11, 01:09:01,VALID,919.836,VALID,0,VALID,98.5099,VALID,-0.0849042,VALID,19.8691,VALID,125,VALID,0.48383,
2004-10-11, 01:10:00,VALID,919.837,VALID,0,VALID,98.4006,VALID,-0.0849042,VALID,19.8562,VALID,153,VALID,0.619673,
2004-10-11, 01:11:01,VALID,919.832,VALID,0,VALID,98.398,VALID,-0.0679233,VALID,19.853,VALID,151,VALID,0.607031,
2004-10-11, 01:12:00,VALID,919.806,VALID,0,VALID,98.5048,VALID,-0.0679233,VALID,19.8475,VALID,149,VALID,0.44778,
2004-10-11, 01:13:00,VALID,919.785,VALID,0,VALID,98.5697,VALID,-0.0339617,VALID,19.8242,VALID,149,VALID,0.552083,
2004-10-11, 01:14:00,VALID,919.779,VALID,0,VALID,98.7185,VALID,-0.0509425,VALID,19.818,VALID,149,VALID,0.104288,
2004-10-11, 01:15:00,VALID,919.767,VALID,0,VALID,98.8622,VALID,-0.0849042,VALID,19.815,VALID,149,VALID,0.104959,
2004-10-11, 01:16:00,VALID,919.753,VALID,0,VALID,98.9486,VALID,-0.0679233,VALID,19.8217,VALID,149,VALID,0.0715554,
2004-10-11, 01:17:01,VALID,919.737,VALID,0,VALID,99.0427,VALID,-0.101885,VALID,19.815,VALID,149,VALID,0.0349507,
2004-10-11, 01:18:00,VALID,919.714,VALID,0,VALID,99.0809,VALID,-0.101885,VALID,19.8118,VALID,149,VALID,0,
2004-10-11, 01:19:01,VALID,919.71,VALID,0,VALID,99.1318,VALID,-0.101885,VALID,19.8185,VALID,149,VALID,0,
2004-10-11, 01:20:00,VALID,919.674,VALID,0,VALID,99.1,VALID,-0.0849042,VALID,19.8013,VALID,149,VALID,0,
2004-10-11, 01:21:00,VALID,919.646,VALID,0,VALID,99.2195,VALID,-0.0679233,VALID,19.808,VALID,156,VALID,0.0203887,
2004-10-11, 01:22:01,VALID,919.629,VALID,0,VALID,99.1902,VALID,-0.0849042,VALID,19.8018,VALID,209,VALID,0.526563,
2004-10-11, 01:23:00,VALID,919.614,VALID,0,VALID,99.2195,VALID,-0.101885,VALID,19.779,VALID,230,VALID,0.559832,
2004-10-11, 01:24:01,VALID,919.583,VALID,0,VALID,99.3886,VALID,-0.0509425,VALID,19.7795,VALID,237,VALID,0.620427,
2004-10-11, 01:25:01,VALID,919.556,VALID,0,VALID,99.5755,VALID,-0.0679233,VALID,19.7564,VALID,244,VALID,0.458394,
2004-10-11, 01:26:01,VALID,919.532,VALID,0,VALID,99.6595,VALID,-0.0849042,VALID,19.7464,VALID,244,VALID,0.504764,
2004-10-11, 01:27:01,VALID,919.502,VALID,0,VALID,99.7904,VALID,-0.0679233,VALID,19.74,VALID,244,VALID,0.0996528,
2004-10-11, 01:28:01,VALID,919.488,VALID,0,VALID,99.8896,VALID,-0.0849042,VALID,19.7499,VALID,242,VALID,0.0421113,
2004-10-11, 01:29:00,VALID,919.46,VALID,0,VALID,99.9265,VALID,-0.0849042,VALID,19.7335,VALID,177,VALID,0.304167,
2004-10-11, 01:30:00,VALID,919.447,VALID,0,VALID,99.9379,VALID,-0.0849042,VALID,19.7273,VALID,176,VALID,0.00114329,
2004-10-11, 01:31:01,VALID,919.417,VALID,0,VALID,100,VALID,-0.0679233,VALID,19.7435,VALID,173,VALID,0.205729,
2004-10-11, 01:32:00,VALID,919.4,VALID,0,VALID,99.9405,VALID,-0.0679233,VALID,19.7243,VALID,158,VALID,0.488467,
2004-10-11, 01:33:01,VALID,919.391,VALID,0,VALID,99.8934,VALID,-0.0169808,VALID,19.7206,VALID,149,VALID,0.558789,
2004-10-11, 01:34:01,VALID,919.367,VALID,0,VALID,99.8909,VALID,-0.0169808,VALID,19.7139,VALID,130,VALID,0.532393,
2004-10-11, 01:35:01,VALID,919.35,VALID,0,VALID,99.9011,VALID,-0.0169808,VALID,19.7174,VALID,137,VALID,0.467416,
2004-10-11, 01:36:00,VALID,919.342,VALID,0,VALID,99.8667,VALID,-0.0169808,VALID,19.7238,VALID,153,VALID,0.569247,
2004-10-11, 01:37:00,VALID,919.328,VALID,0.2,VALID,99.8553,VALID,-0.0509425,VALID,19.7209,VALID,153,VALID,0.586458,
2004-10-11, 01:38:01,VALID,919.313,VALID,0,VALID,99.8985,VALID,-0.0339617,VALID,19.7211,VALID,140,VALID,0.458882,
2004-10-11, 01:39:01,VALID,919.299,VALID,0,VALID,99.8655,VALID,-0.0169808,VALID,19.7241,VALID,127,VALID,0.717842,
2004-10-11, 01:40:00,VALID,919.29,VALID,0,VALID,99.8324,VALID,-0.0679233,VALID,19.7112,VALID,124,VALID,0.393293,
2004-10-11, 01:41:00,VALID,919.274,VALID,0,VALID,99.8655,VALID,-0.0339617,VALID,19.7017,VALID,124,VALID,0.240234,
2004-10-11, 01:42:00,VALID,919.247,VALID,0,VALID,99.929,VALID,-0.0509425,VALID,19.7079,VALID,122,VALID,0.317508,
2004-10-11, 01:43:01,VALID,919.246,VALID,0,VALID,99.9023,VALID,-0.0339617,VALID,19.6851,VALID,114,VALID,0.413867,
2004-10-11, 01:44:00,VALID,919.217,VALID,0,VALID,99.9481,VALID,-0.0339617,VALID,19.6791,VALID,77,VALID,0.601017,
2004-10-11, 01:45:01,VALID,919.208,VALID,0,VALID,100,VALID,-0.0339617,VALID,19.6724,VALID,61,VALID,0.576451,
2004-10-11, 01:46:00,VALID,919.189,VALID,0,VALID,100,VALID,-0.0339617,VALID,19.6625,VALID,51,VALID,0.376367,
2004-10-11, 01:47:00,VALID,919.178,VALID,0,VALID,100,VALID,0,VALID,19.6722,VALID,51,VALID,0.391146,
2004-10-11, 01:48:00,VALID,919.158,VALID,0,VALID,100,VALID,0,VALID,19.6756,VALID,51,VALID,0.365829,
2004-10-11, 01:49:01,VALID,919.129,VALID,0,VALID,100,VALID,-0.0169808,VALID,19.6687,VALID,70,VALID,0.695112,
2004-10-11, 01:50:00,VALID,919.112,VALID,0,VALID,99.999,VALID,0,VALID,19.6657,VALID,69,VALID,0.610137,
2004-10-11, 01:51:00,VALID,919.076,VALID,0,VALID,100,VALID,-0.0339617,VALID,19.666,VALID,45,VALID,0.494913,
2004-10-11, 01:52:00,VALID,919.057,VALID,0,VALID,100,VALID,-0.0169808,VALID,19.653,VALID,57,VALID,0.695884,
2004-10-11, 01:53:01,VALID,919.014,VALID,0,VALID,100,VALID,-0.0169808,VALID,19.6332,VALID,70,VALID,0.749047,
2004-10-11, 01:54:00,VALID,918.985,VALID,0,VALID,100,VALID,-0.0679233,VALID,19.6399,VALID,56,VALID,0.618641,
2004-10-11, 01:55:00,VALID,918.941,VALID,0,VALID,100,VALID,0,VALID,19.6168,VALID,76,VALID,0.468564,
2004-10-11, 01:56:01,VALID,918.907,VALID,0,VALID,100,VALID,-0.0339617,VALID,19.6078,VALID,65,VALID,0.406605,
2004-10-11, 01:57:00,VALID,918.875,VALID,0,VALID,100,VALID,-0.0339617,VALID,19.5979,VALID,65,VALID,0.383185,
2004-10-11, 01:58:00,VALID,918.854,VALID,0,VALID,100,VALID,-0.0169808,VALID,19.585,VALID,118,VALID,0.756177,
2004-10-11, 01:59:00,VALID,918.85,VALID,0,VALID,100,VALID,0,VALID,19.5721,VALID,102,VALID,0.925876,
2004-10-11, 02:00:00,VALID,918.839,VALID,0,VALID,100,VALID,0,VALID,19.5698,VALID,74,VALID,0.848514,
2004-10-11, 02:01:01,VALID,918.831,VALID,0,VALID,100,VALID,-0.0339617,VALID,19.5661,VALID,88,VALID,0.810082,
2004-10-11, 02:02:00,VALID,918.821,VALID,0,VALID,100,VALID,-0.0169808,VALID,19.547,VALID,71,VALID,0.672057,
2004-10-11, 02:03:00,VALID,918.813,VALID,0,VALID,100,VALID,-0.0679233,VALID,19.537,VALID,71,VALID,0.627362,
2004-10-11, 02:04:00,VALID,918.784,VALID,0,VALID,100,VALID,-0.0849042,VALID,19.5239,VALID,81,VALID,0.678163,
2004-10-11, 02:05:01,VALID,918.762,VALID,0,VALID,100,VALID,-0.0509425,VALID,19.5241,VALID,76,VALID,0.315451,
2004-10-11, 02:06:00,VALID,918.734,VALID,0,VALID,100,VALID,-0.0339617,VALID,19.5107,VALID,58,VALID,0.401278,
2004-10-11, 02:07:00,VALID,918.716,VALID,0,VALID,100,VALID,-0.0509425,VALID,19.5202,VALID,52,VALID,0.0190304,
2004-10-11, 02:08:00,VALID,918.676,VALID,0,VALID,100,VALID,-0.0169808,VALID,19.5333,VALID,57,VALID,0.118862,
2004-10-11, 02:09:00,VALID,918.676,VALID,0,VALID,100,VALID,0,VALID,19.5336,VALID,74,VALID,0.356318,
2004-10-11, 02:10:01,VALID,918.664,VALID,0,VALID,100,VALID,-0.0169808,VALID,19.5338,VALID,68,VALID,0.53776,
2004-10-11, 02:11:00,VALID,918.673,VALID,0,VALID,100,VALID,-0.0169808,VALID,19.5105,VALID,59,VALID,0.807706,
2004-10-11, 02:12:01,VALID,918.666,VALID,0,VALID,100,VALID,0,VALID,19.5142,VALID,64,VALID,0.664418,
2004-10-11, 02:13:00,VALID,918.646,VALID,0,VALID,100,VALID,-0.0339617,VALID,19.5115,VALID,55,VALID,0.650923,
2004-10-11, 02:14:00,VALID,918.633,VALID,0,VALID,100,VALID,-0.0169808,VALID,19.4851,VALID,60,VALID,0.821403,
2004-10-11, 02:15:00,VALID,918.615,VALID,0,VALID,100,VALID,0,VALID,19.4784,VALID,61,VALID,0.777902,
2004-10-11, 02:16:01,VALID,918.576,VALID,0,VALID,100,VALID,0,VALID,19.4886,VALID,67,VALID,0.561756,
2004-10-11, 02:17:00,VALID,918.539,VALID,0,VALID,100,VALID,-0.0339617,VALID,19.4889,VALID,52,VALID,0.543826,
2004-10-11, 02:18:00,VALID,918.499,VALID,0,VALID,100,VALID,-0.0679233,VALID,19.4792,VALID,38,VALID,0.505269,
2004-10-11, 02:19:00,VALID,918.464,VALID,0,VALID,100,VALID,-0.0339617,VALID,19.5052,VALID,28,VALID,0.63941,
2004-10-11, 02:20:01,VALID,918.429,VALID,0,VALID,100,VALID,-0.0339617,VALID,19.505,VALID,21,VALID,0.391352,
2004-10-11, 02:21:01,VALID,918.385,VALID,0,VALID,100,VALID,-0.0169808,VALID,19.4914,VALID,21,VALID,0.314215,
2004-10-11, 02:22:01,VALID,918.37,VALID,0,VALID,100,VALID,-0.0169808,VALID,19.4916,VALID,21,VALID,0.217226,
2004-10-11, 02:23:01,VALID,918.346,VALID,0,VALID,100,VALID,-0.0169808,VALID,19.4985,VALID,21,VALID,0.460392,
2004-10-11, 02:24:00,VALID,918.336,VALID,0,VALID,100,VALID,-0.0169808,VALID,19.4692,VALID,34,VALID,0.530878,
2004-10-11, 02:25:01,VALID,918.321,VALID,0,VALID,100,VALID,-0.0339617,VALID,19.4399,VALID,55,VALID,0.6337,
2004-10-11, 02:26:01,VALID,918.323,VALID,0,VALID,100,VALID,-0.0169808,VALID,19.4111,VALID,60,VALID,0.669389,
2004-10-11, 02:27:00,VALID,918.325,VALID,0,VALID,100,VALID,-0.0169808,VALID,19.3687,VALID,67,VALID,0.961509,
2004-10-11, 02:28:01,VALID,918.32,VALID,0,VALID,100,VALID,-0.0169808,VALID,19.3366,VALID,67,VALID,0.674219,
2004-10-11, 02:29:01,VALID,918.32,VALID,0,VALID,100,VALID,-0.0169808,VALID,19.321,VALID,58,VALID,0.916159,
2004-10-11, 02:30:01,VALID,918.291,VALID,0,VALID,100,VALID,-0.0509425,VALID,19.3048,VALID,57,VALID,0.744093,
2004-10-11, 02:31:01,VALID,918.281,VALID,0,VALID,100,VALID,-0.0339617,VALID,19.2758,VALID,56,VALID,0.617001,
2004-10-11, 02:32:01,VALID,918.272,VALID,0,VALID,100,VALID,-0.0509425,VALID,19.2787,VALID,47,VALID,0.543924,
2004-10-11, 02:33:01,VALID,918.263,VALID,0,VALID,100,VALID,-0.0169808,VALID,19.2817,VALID,32,VALID,0.688867,
2004-10-11, 02:34:01,VALID,918.243,VALID,0,VALID,100,VALID,-0.0169808,VALID,19.2877,VALID,18,VALID,0.806818,
2004-10-11, 02:35:01,VALID,918.231,VALID,0,VALID,100,VALID,-0.0339617,VALID,19.2646,VALID,15,VALID,0.797433,
2004-10-11, 02:36:01,VALID,918.22,VALID,0,VALID,100,VALID,-0.0169808,VALID,19.249,VALID,15,VALID,0.746595,
2004-10-11, 02:37:01,VALID,918.206,VALID,0,VALID,100,VALID,-0.0169808,VALID,19.2323,VALID,16,VALID,0.589063,
2004-10-11, 02:38:01,VALID,918.213,VALID,0,VALID,100,VALID,0,VALID,19.2194,VALID,17,VALID,0.531822,
2004-10-11, 02:39:01,VALID,918.221,VALID,0,VALID,100,VALID,0,VALID,19.2134,VALID,17,VALID,0.203125,
2004-10-11, 02:40:01,VALID,918.233,VALID,0,VALID,100,VALID,-0.0169808,VALID,19.2097,VALID,17,VALID,0,
2004-10-11, 02:41:01,VALID,918.251,VALID,0,VALID,100,VALID,-0.0169808,VALID,19.2358,VALID,17,VALID,0,
2004-10-11, 02:42:00,VALID,918.267,VALID,0,VALID,100,VALID,-0.0169808,VALID,19.249,VALID,17,VALID,0,
2004-10-11, 02:43:00,VALID,918.284,VALID,0,VALID,100,VALID,-0.0339617,VALID,19.2457,VALID,17,VALID,0.138626,
2004-10-11, 02:44:01,VALID,918.306,VALID,0,VALID,100,VALID,-0.0509425,VALID,19.2492,VALID,21,VALID,0.597049,
2004-10-11, 02:45:01,VALID,918.328,VALID,0,VALID,100,VALID,-0.0169808,VALID,19.2427,VALID,23,VALID,0.783067,
2004-10-11, 02:46:01,VALID,918.358,VALID,0,VALID,100,VALID,-0.0169808,VALID,19.2455,VALID,23,VALID,0.864099,
2004-10-11, 02:47:01,VALID,918.382,VALID,0,VALID,100,VALID,0,VALID,19.2455,VALID,23,VALID,0.92351,
2004-10-11, 02:48:01,VALID,918.4,VALID,0,VALID,100,VALID,-0.0169808,VALID,19.2522,VALID,22,VALID,0.883539,
2004-10-11, 02:49:01,VALID,918.39,VALID,0,VALID,100,VALID,0,VALID,19.2226,VALID,20,VALID,0.768674,
2004-10-11, 02:50:01,VALID,918.386,VALID,0,VALID,100,VALID,-0.0169808,VALID,19.2139,VALID,19,VALID,0.676829,
2004-10-11, 02:51:01,VALID,918.367,VALID,0,VALID,100,VALID,-0.0169808,VALID,19.1938,VALID,7,VALID,0.785442,
2004-10-11, 02:52:01,VALID,918.352,VALID,0,VALID,100,VALID,0,VALID,19.1678,VALID,2,VALID,0.599609,
2004-10-11, 02:53:01,VALID,918.332,VALID,0,VALID,100,VALID,0,VALID,19.1295,VALID,352,VALID,0.521577,
2004-10-11, 02:54:01,VALID,918.317,VALID,0,VALID,100,VALID,0,VALID,19.0774,VALID,342,VALID,0.583934,
2004-10-11, 02:55:01,VALID,918.32,VALID,0,VALID,100,VALID,0,VALID,19.0553,VALID,344,VALID,0.573583,
2004-10-11, 02:56:01,VALID,918.32,VALID,0,VALID,100,VALID,0,VALID,19.0197,VALID,342,VALID,0.456032,
2004-10-11, 02:57:01,VALID,918.337,VALID,0,VALID,100,VALID,-0.0169808,VALID,18.9974,VALID,349,VALID,0.690341,
2004-10-11, 02:58:01,VALID,918.353,VALID,0,VALID,100,VALID,0,VALID,18.9808,VALID,356,VALID,0.462426,
2004-10-11, 02:59:01,VALID,918.388,VALID,0,VALID,100,VALID,0,VALID,18.9649,VALID,356,VALID,0.20277,
2004-10-11, 03:00:01,VALID,918.409,VALID,0,VALID,100,VALID,0,VALID,18.984,VALID,356,VALID,0.331659,
2004-10-11, 03:01:01,VALID,918.434,VALID,0,VALID,100,VALID,-0.0169808,VALID,19.0001,VALID,28,VALID,0.629542,
2004-10-11, 03:02:01,VALID,918.446,VALID,0,VALID,100,VALID,-0.0509425,VALID,18.9909,VALID,30,VALID,0.774826,
2004-10-11, 03:03:01,VALID,918.471,VALID,0,VALID,100,VALID,0.0509425,VALID,18.9768,VALID,41,VALID,0.84811,
2004-10-11, 03:04:01,VALID,918.474,VALID,0,VALID,100,VALID,0.101885,VALID,18.9833,VALID,41,VALID,0.901928,
2004-10-11, 03:05:01,VALID,918.492,VALID,0,VALID,100,VALID,0.101885,VALID,18.9533,VALID,46,VALID,0.858285,
2004-10-11, 03:06:01,VALID,918.512,VALID,0,VALID,100,VALID,0.101885,VALID,18.9242,VALID,51,VALID,0.923828,
2004-10-11, 03:07:01,VALID,918.521,VALID,0,VALID,99.9746,VALID,0.101885,VALID,18.9115,VALID,50,VALID,0.871466,
2004-10-11, 03:08:00,VALID,918.524,VALID,0,VALID,99.9672,VALID,0.101885,VALID,18.9051,VALID,32,VALID,0.825977,
2004-10-11, 03:09:00,VALID,918.523,VALID,0,VALID,99.9201,VALID,0.101885,VALID,18.9088,VALID,30,VALID,0.906064,
2004-10-11, 03:10:00,VALID,918.521,VALID,0,VALID,99.8578,VALID,0.0849042,VALID,18.8892,VALID,32,VALID,0.960029,
2004-10-11, 03:11:00,VALID,918.53,VALID,0,VALID,99.7587,VALID,0.101885,VALID,18.8763,VALID,31,VALID,0.942224,
2004-10-11, 03:12:00,VALID,918.554,VALID,0,VALID,99.7523,VALID,0.101885,VALID,18.8542,VALID,29,VALID,0.823401,
2004-10-11, 03:13:00,VALID,918.546,VALID,0,VALID,99.6951,VALID,0.0849042,VALID,18.8279,VALID,26,VALID,0.916371,
2004-10-11, 03:14:00,VALID,918.545,VALID,0,VALID,99.7421,VALID,0.101885,VALID,18.8249,VALID,23,VALID,0.815952,
2004-10-11, 03:15:00,VALID,918.549,VALID,0,VALID,99.7129,VALID,0.101885,VALID,18.835,VALID,15,VALID,0.833212,
2004-10-11, 03:16:00,VALID,918.539,VALID,0,VALID,99.6353,VALID,0.0849042,VALID,18.8122,VALID,19,VALID,0.887649,
2004-10-11, 03:17:00,VALID,918.518,VALID,0,VALID,99.5323,VALID,0.0679233,VALID,18.806,VALID,22,VALID,0.890803,
2004-10-11, 03:18:00,VALID,918.508,VALID,0,VALID,99.5158,VALID,0.0169808,VALID,18.7843,VALID,29,VALID,0.779492,
2004-10-11, 03:19:00,VALID,918.495,VALID,0,VALID,99.5272,VALID,0,VALID,18.788,VALID,43,VALID,0.821221,
2004-10-11, 03:20:00,VALID,918.479,VALID,0,VALID,99.3912,VALID,0,VALID,18.7687,VALID,42,VALID,1.0026,
2004-10-11, 03:21:00,VALID,918.466,VALID,0,VALID,99.3301,VALID,-0.0169808,VALID,18.7488,VALID,52,VALID,0.64897,
2004-10-11, 03:22:00,VALID,918.451,VALID,0,VALID,99.3123,VALID,-0.0339617,VALID,18.7592,VALID,50,VALID,0.317308,
2004-10-11, 03:23:00,VALID,918.436,VALID,0,VALID,99.3276,VALID,0,VALID,18.7458,VALID,47,VALID,0.115513,
2004-10-11, 03:24:00,VALID,918.439,VALID,0,VALID,99.3047,VALID,0,VALID,18.7357,VALID,70,VALID,0.276989,
2004-10-11, 03:25:00,VALID,918.435,VALID,0,VALID,99.4179,VALID,0,VALID,18.7324,VALID,99,VALID,0.423277,
2004-10-11, 03:26:00,VALID,918.447,VALID,0,VALID,99.5221,VALID,0.0169808,VALID,18.7458,VALID,116,VALID,0.414757,
2004-10-11, 03:27:00,VALID,918.457,VALID,0,VALID,99.531,VALID,0,VALID,18.7424,VALID,141,VALID,0.421875,
2004-10-11, 03:28:00,VALID,918.485,VALID,0,VALID,99.4853,VALID,0,VALID,18.7394,VALID,146,VALID,0.330382,
2004-10-11, 03:29:00,VALID,918.499,VALID,0,VALID,99.559,VALID,0,VALID,18.7394,VALID,141,VALID,0.0594815,
2004-10-11, 03:30:00,VALID,918.532,VALID,0,VALID,99.6073,VALID,-0.0169808,VALID,18.7516,VALID,141,VALID,0.0327035,
2004-10-11, 03:31:00,VALID,918.554,VALID,0,VALID,99.6328,VALID,0,VALID,18.7652,VALID,141,VALID,0.158594,
2004-10-11, 03:32:00,VALID,918.588,VALID,0,VALID,99.5488,VALID,0,VALID,18.7746,VALID,142,VALID,0.258681,
2004-10-11, 03:33:00,VALID,918.63,VALID,0,VALID,99.4446,VALID,0,VALID,18.7811,VALID,205,VALID,0.412847,
2004-10-11, 03:34:00,VALID,918.679,VALID,0,VALID,99.3085,VALID,-0.0339617,VALID,18.7848,VALID,223,VALID,0.531977,
2004-10-11, 03:35:00,VALID,918.702,VALID,0,VALID,99.3288,VALID,0,VALID,18.7846,VALID,225,VALID,0.30692,
2004-10-11, 03:36:00,VALID,918.756,VALID,0,VALID,99.3556,VALID,0,VALID,18.7716,VALID,222,VALID,0.320694,
2004-10-11, 03:37:00,VALID,918.779,VALID,0,VALID,99.3149,VALID,0,VALID,18.762,VALID,198,VALID,0.325218,
2004-10-11, 03:38:00,VALID,918.794,VALID,0,VALID,99.4318,VALID,0,VALID,18.7518,VALID,155,VALID,0.435138,
2004-10-11, 03:39:00,VALID,918.823,VALID,0,VALID,99.5285,VALID,0.0169808,VALID,18.7617,VALID,150,VALID,0.451527,